FENGYUN 1C DEB, 30302

Orbit data source: Space-Track

FENGYUN 1C DEB, 30302 is space debris in SSO originally from a launch on Mon, 10 May 1999 UTC launched from the Taiyaun Space Center, China (TSC). Fengyun 1C debris stems from the Chinese weather satellite Fengyun-1C, which was intentionally destroyed by a Chinese anti-satellite missile in 2007. This event dramatically increased the amount of space debris, with thousands of trackable fragments posing hazards to satellites and human spaceflight. The Fengyun 1C debris cloud has become a focal point in discussions about space sustainability and the need for international regulations to prevent the creation of new debris.

Loading next visibility...
Identifier
30302, 1999-025ZP
Orbit
SSO
Country
Flag of CNCN / PRC
Related business
Manufacturer
Unknown
Mission
Spacecraft
Bus & Motor
Unknown
Mass
Unknown
Launch date (UTC)
1999-05-10 (27 years ago)
Launch vehicle
Unknown
Launch site
Taiyaun Space Center, China (TSC)
Object type
Payload
Rocket body
Debris
Shape & HBR
Unknown shape, 0.1 m
Radar Cross Section
Small (<0.1 m²)

Expand to show TLE details & history
Last TLE update: 3 days ago

TLE from 3 days ago
0 FENGYUN 1C DEB
1 30302U 99025ZP  26035.53275583  .00006975  00000-0  35330-2 0  9990
2 30302  98.5539 305.8671 0106259 326.2171  33.2262 14.13459175968038
Epoch: 2026-02-04T12:47Z
TLE epoch observation values (Epoch: 2026-02-04T12:47:10.103Z)
Latitude
-0.00002°
Longitude
-20.62297°
Altitude
786.478 km
Speed
7.493 km/s
True Right ascension
20h 23m 28s
True Declination
0° 00' 00"
Sunlit
Object was in daylight at epoch
Visualization orbit readout
Latitude
Unknown
Longitude
Unknown
Altitude
Unknown
Speed
Unknown
Apparent Right ascension
Unknown
Apparent Declination
Unknown
Sunlit
N/A
Visualization observer readout
Local Sidereal Time
10:03:58
Azimuth
Unknown
Elevation
Unknown
Doppler factor
Unknown
Orbital elements
Apogee altitude
921.467 km
Perigee altitude
767.969 km
Semi-major axis
7,222.855 km
Eccentricity
0.01063
Inclination
98.5539°
RAAN
305.8671°
Arg. of periapsis
326.2171°
True anomaly
33.90088°
Mean anomaly
33.2262°
Eccentric anomaly
33.56279°
Mean motion
3.53574 °/min
Orbital period
101.82 mins
BSTAR
0.003533
Loading maneuver chart data...
Computing Atmospheric mass density...

Documentation

Showing up to 5 results
|